Content
SEND FEEDBACK

Daily
Averages
Monthly
Summary
United States of America

STATEN ISLAND, NEW YORK


Home > North America > United States > New York
Elevation: 152 feet     Latitude: 40 35N     Longitude: 074 09W

WEATHER
 
SELECT A DAY
Number of Records: 189,740;   Date Range: 1/1/95 - 8/12/14
 
SHARE

PRINT THIS DATA

[ ← Previous Day ]
WEATHER ALMANAC - JUNE 18, 2013
[ Next Day → ]
[ °C ]   °F
We're sorry. There is no daily almanac available for Staten Island, New York on June 18, 2013.
WEATHER BY HOUR - JUNE 18, 2013
[ °C ]   °F
Local TimeTemperatureDewpointHumidityBarometerVisibilityWind DirectionWind SpeedGust SpeedPrecipitationEventsConditions
1:51 AM71.1 °F64.0 °F78 %29.88 in10.0 miWSW (240°)5.8 mphScattered Clouds
2:51 AM71.1 °F64.0 °F78 %29.88 in10.0 miNW (310°)4.6 mphPartly Cloudy
3:51 AM71.1 °F64.9 °F81 %29.87 in10.0 miCalmPartly Cloudy
4:51 AM68.0 °F64.0 °F87 %29.87 in10.0 miCalmScattered Clouds
5:51 AM66.0 °F62.1 °F87 %29.88 in10.0 miNorth (10°)5.8 mphMostly Cloudy
6:51 AM68.0 °F64.0 °F87 %29.89 in8.0 miNorth (10°)5.8 mphMostly Cloudy
7:51 AM72.0 °F64.0 °F76 %29.89 in9.0 miCalmMostly Cloudy
8:51 AM75.0 °F64.9 °F71 %29.90 in8.0 miCalmMostly Cloudy
9:51 AM77.0 °F64.0 °F64 %29.88 in8.0 miCalmMostly Cloudy
10:51 AM80.1 °F63.0 °F56 %29.87 in10.0 miVariable3.5 mphMostly Cloudy
11:51 AM81.0 °F66.0 °F60 %29.86 in9.0 miVariable6.9 mphMostly Cloudy
12:51 PM82.0 °F64.9 °F56 %29.84 in10.0 miVariable4.6 mphOvercast
1:51 PM79.0 °F66.0 °F64 %29.83 in10.0 miSSE (150°)6.9 mphOvercast
2:51 PM77.0 °F64.9 °F66 %29.83 in10.0 miESE (110°)4.6 mphOvercast
3:51 PM75.9 °F66.0 °F71 %29.84 in9.0 miSE (140°)6.9 mph0.00 inRainLight Rain
4:22 PM73.4 °F66.2 °F78 %29.84 in7.0 miSouth (180°)12.7 mph19.6 mph0.01 inRainLight Rain
4:42 PM69.8 °F64.4 °F83 %29.83 in10.0 miSouth (180°)10.4 mph19.6 mph0.01 inRainLight Rain
4:51 PM69.1 °F64.0 °F84 %29.84 in9.0 miSouth (180°)8.1 mph0.01 inRainLight Rain
5:24 PM69.8 °F64.4 °F83 %29.86 in6.0 miNNW (340°)8.1 mph0.01 inRainLight Rain
5:51 PM66.9 °F62.1 °F84 %29.87 in7.0 miNorth (10°)12.7 mph0.02 inRainLight Rain
6:51 PM66.9 °F61.0 °F81 %29.86 in7.0 miNorth (360°)3.5 mph0.09 inRainLight Rain
7:43 PM68.0 °F60.8 °F78 %29.82 in10.0 miSE (130°)4.6 mph0.02 inRainLight Rain
7:51 PM68.0 °F61.0 °F78 %29.82 in10.0 miESE (120°)4.6 mph0.02 inRainLight Rain
8:51 PM66.0 °F62.1 °F87 %29.84 in10.0 miNorth (350°)11.5 mph0.00 inRainLight Rain
9:51 PM66.0 °F62.1 °F87 %29.86 in10.0 miNorth (10°)9.2 mph0.00 inOvercast
10:40 PM66.2 °F64.4 °F94 %29.87 in10.0 miNorth (360°)10.4 mphOvercast
10:51 PM66.9 °F64.0 °F90 %29.88 in10.0 miNorth (360°)13.8 mphOvercast
11:51 PM66.9 °F64.0 °F90 %29.88 in10.0 miNorth (10°)11.5 mphOvercast
Hourly data recorded from KEWR, located miles away from Staten Island, New York







STORIES FROM OUR PARTNERS